�v������,1F�Ɩ�(kWh),2F�Ɩ�(kWh),3F�Ɩ�(kWh)
2022/9/1 0:00,0,0,0.01
2022/9/1 0:10,0,0,0.01
2022/9/1 0:20,0,0,0
2022/9/1 0:30,0,0,0.01
2022/9/1 0:40,0,0,0
2022/9/1 0:50,0,0,0.01
2022/9/1 1:00,0,0,0.01
2022/9/1 1:10,0,0,0
2022/9/1 1:20,0,0,0.01
2022/9/1 1:30,0,0,0
2022/9/1 1:40,0,0,0.01
2022/9/1 1:50,0,0,0.01
2022/9/1 2:00,0,0,0
2022/9/1 2:10,0,0,0.01
2022/9/1 2:20,0,0,0.01
2022/9/1 2:30,0,0,0
2022/9/1 2:40,0,0,0.01
2022/9/1 2:50,0,0,0
2022/9/1 3:00,0,0,0.01
2022/9/1 3:10,0,0,0.01
2022/9/1 3:20,0,0,0
2022/9/1 3:30,0,0,0.01
2022/9/1 3:40,0,0,0
2022/9/1 3:50,0,0,0.01
2022/9/1 4:00,0,0,0.01
2022/9/1 4:10,0,0,0
2022/9/1 4:20,0,0,0.01
2022/9/1 4:30,0,0,0.01
2022/9/1 4:40,0,0,0
2022/9/1 4:50,0,0,0.01
2022/9/1 5:00,0,0,0
2022/9/1 5:10,0,0,0.01
2022/9/1 5:20,0,0,0.01
2022/9/1 5:30,0,0,0
2022/9/1 5:40,0,0,0.01
2022/9/1 5:50,0,0,0
2022/9/1 6:00,0,0,0.01
2022/9/1 6:10,0.01,0.03,0.01
2022/9/1 6:20,0,0.06,0
2022/9/1 6:30,0.01,0.11,0.01
2022/9/1 6:40,0.05,0.32,0
2022/9/1 6:50,0.17,0.48,0.01
2022/9/1 7:00,0.16,0.46,0.01
2022/9/1 7:10,0.06,0.48,0
2022/9/1 7:20,0.16,0.53,0.01
2022/9/1 7:30,0.15,0.59,0.03
2022/9/1 7:40,0.1,0.61,0.15
2022/9/1 7:50,0.06,0.41,0.15
2022/9/1 8:00,0.17,0.57,0
2022/9/1 8:10,0.07,0.6,0.01
2022/9/1 8:20,0.04,0.62,0.01
2022/9/1 8:30,0.03,0.64,0
2022/9/1 8:40,0.03,0.59,0.01
2022/9/1 8:50,0.04,0.6,0
2022/9/1 9:00,0.03,0.54,0.01
2022/9/1 9:10,0.03,0.58,0.01
2022/9/1 9:20,0.18,0.58,0.02
2022/9/1 9:30,0.11,0.55,0.04
2022/9/1 9:40,0.01,0.56,0.1
2022/9/1 9:50,0,0.54,0.08
2022/9/1 10:00,0.03,0.51,0.09
2022/9/1 10:10,0.1,0.57,0.06
2022/9/1 10:20,0,0.56,0
2022/9/1 10:30,0.06,0.6,0.01
2022/9/1 10:40,0.01,0.55,0
2022/9/1 10:50,0.05,0.62,0.01
2022/9/1 11:00,0.05,0.54,0.01
2022/9/1 11:10,0.03,0.57,0
2022/9/1 11:20,0.05,0.55,0.02
2022/9/1 11:30,0.03,0.54,0.04
2022/9/1 11:40,0.16,0.58,0.05
2022/9/1 11:50,0.1,0.57,0.04
2022/9/1 12:00,0.08,0.15,0.16
2022/9/1 12:10,0.13,0.12,0.18
2022/9/1 12:20,0.11,0.14,0.17
2022/9/1 12:30,0.12,0.16,0.19
2022/9/1 12:40,0.07,0.12,0.18
2022/9/1 12:50,0.13,0.27,0.14
2022/9/1 13:00,0.1,0.59,0.01
2022/9/1 13:10,0.02,0.56,0.01
2022/9/1 13:20,0.01,0.56,0
2022/9/1 13:30,0.01,0.51,0.01
2022/9/1 13:40,0.1,0.45,0
2022/9/1 13:50,0.1,0.55,0.01
2022/9/1 14:00,0.03,0.51,0.01
2022/9/1 14:10,0.01,0.53,0
2022/9/1 14:20,0.03,0.49,0.01
2022/9/1 14:30,0.04,0.57,0
2022/9/1 14:40,0.08,0.52,0.01
2022/9/1 14:50,0.17,0.53,0.01
2022/9/1 15:00,0.21,0.51,0
2022/9/1 15:10,0.09,0.5,0.01
2022/9/1 15:20,0.04,0.51,0
2022/9/1 15:30,0.04,0.54,0.01
2022/9/1 15:40,0.04,0.55,0
2022/9/1 15:50,0.1,0.52,0.01
2022/9/1 16:00,0.04,0.57,0.01
2022/9/1 16:10,0.02,0.53,0
2022/9/1 16:20,0.08,0.56,0.01
2022/9/1 16:30,0.21,0.53,0
2022/9/1 16:40,0.14,0.55,0.01
2022/9/1 16:50,0.19,0.56,0.01
2022/9/1 17:00,0.12,0.57,0.23
2022/9/1 17:10,0.18,0.57,0.1
2022/9/1 17:20,0.24,0.53,0.17
2022/9/1 17:30,0.24,0.52,0.06
2022/9/1 17:40,0.2,0.58,0.1
2022/9/1 17:50,0.18,0.56,0.15
2022/9/1 18:00,0.17,0.51,0.13
2022/9/1 18:10,0.09,0.5,0.17
2022/9/1 18:20,0.07,0.41,0.1
2022/9/1 18:30,0.03,0.42,0.08
2022/9/1 18:40,0.04,0.42,0.14
2022/9/1 18:50,0.04,0.37,0.16
2022/9/1 19:00,0.02,0.35,0.16
2022/9/1 19:10,0.03,0.36,0.01
2022/9/1 19:20,0.03,0.38,0
2022/9/1 19:30,0.03,0.38,0.01
2022/9/1 19:40,0.02,0.34,0
2022/9/1 19:50,0.02,0.43,0.01
2022/9/1 20:00,0,0.32,0.01
2022/9/1 20:10,0.01,0.32,0
2022/9/1 20:20,0,0.28,0.01
2022/9/1 20:30,0.01,0.29,0.01
2022/9/1 20:40,0,0.27,0
2022/9/1 20:50,0.01,0.28,0.01
2022/9/1 21:00,0,0.32,0
2022/9/1 21:10,0.01,0.27,0.01
2022/9/1 21:20,0,0.25,0.01
2022/9/1 21:30,0.01,0.31,0
2022/9/1 21:40,0.01,0.29,0.01
2022/9/1 21:50,0.01,0.21,0.01
2022/9/1 22:00,0,0.19,0
2022/9/1 22:10,0.01,0.13,0.01
2022/9/1 22:20,0,0,0
2022/9/1 22:30,0,0,0.01
2022/9/1 22:40,0,0,0.01
2022/9/1 22:50,0,0,0
2022/9/1 23:00,0,0,0.01
2022/9/1 23:10,0,0,0.01
2022/9/1 23:20,0,0,0
2022/9/1 23:30,0,0,0.01
2022/9/1 23:40,0,0,0
2022/9/1 23:50,0,0,0.01
2022/9/2 0:00,0,0,0.01
2022/9/2 0:10,0,0,0
2022/9/2 0:20,0,0,0.01
2022/9/2 0:30,0,0,0.01
2022/9/2 0:40,0,0,0
2022/9/2 0:50,0,0,0.01
2022/9/2 1:00,0,0,0
2022/9/2 1:10,0,0,0.01
2022/9/2 1:20,0,0,0.01
2022/9/2 1:30,0,0,0
2022/9/2 1:40,0,0,0.01
2022/9/2 1:50,0,0,0.01
2022/9/2 2:00,0,0,0
2022/9/2 2:10,0,0,0.01
2022/9/2 2:20,0,0,0
2022/9/2 2:30,0,0,0.01
2022/9/2 2:40,0,0,0.01
2022/9/2 2:50,0,0,0
2022/9/2 3:00,0,0,0.01
2022/9/2 3:10,0,0,0.01
2022/9/2 3:20,0,0,0
2022/9/2 3:30,0,0,0.01
2022/9/2 3:40,0,0,0
2022/9/2 3:50,0,0,0.01
2022/9/2 4:00,0,0,0.01
2022/9/2 4:10,0,0,0
2022/9/2 4:20,0,0,0.01
2022/9/2 4:30,0,0,0.01
2022/9/2 4:40,0,0,0
2022/9/2 4:50,0,0,0.01
2022/9/2 5:00,0,0,0
2022/9/2 5:10,0,0,0.01
2022/9/2 5:20,0,0,0.01
2022/9/2 5:30,0,0,0
2022/9/2 5:40,0,0,0.01
2022/9/2 5:50,0,0,0
2022/9/2 6:00,0,0,0.01
2022/9/2 6:10,0.01,0.03,0.01
2022/9/2 6:20,0,0.06,0
2022/9/2 6:30,0,0.08,0.01
2022/9/2 6:40,0.02,0.23,0.01
2022/9/2 6:50,0.12,0.5,0
2022/9/2 7:00,0.21,0.49,0.01
2022/9/2 7:10,0.11,0.5,0
2022/9/2 7:20,0.11,0.44,0.01
2022/9/2 7:30,0.07,0.48,0.01
2022/9/2 7:40,0.1,0.61,0.13
2022/9/2 7:50,0.04,0.38,0.14
2022/9/2 8:00,0.17,0.61,0.01
2022/9/2 8:10,0.1,0.62,0
2022/9/2 8:20,0.03,0.62,0.12
2022/9/2 8:30,0.11,0.57,0.15
2022/9/2 8:40,0.08,0.64,0.11
2022/9/2 8:50,0.07,0.64,0.01
2022/9/2 9:00,0.11,0.62,0
2022/9/2 9:10,0.04,0.6,0.01
2022/9/2 9:20,0.1,0.64,0
2022/9/2 9:30,0.15,0.58,0.01
2022/9/2 9:40,0.15,0.59,0.01
2022/9/2 9:50,0.11,0.63,0.01
2022/9/2 10:00,0.14,0.63,0
2022/9/2 10:10,0.06,0.59,0.01
2022/9/2 10:20,0.14,0.57,0.01
2022/9/2 10:30,0.05,0.56,0
2022/9/2 10:40,0.1,0.57,0.01
2022/9/2 10:50,0.13,0.57,0
2022/9/2 11:00,0.07,0.51,0.01
2022/9/2 11:10,0.11,0.58,0.01
2022/9/2 11:20,0.06,0.53,0
2022/9/2 11:30,0.03,0.57,0.08
2022/9/2 11:40,0.02,0.59,0.11
2022/9/2 11:50,0.02,0.59,0.11
2022/9/2 12:00,0.08,0.18,0.16
2022/9/2 12:10,0.16,0.11,0.18
2022/9/2 12:20,0.09,0.16,0.18
2022/9/2 12:30,0.03,0.13,0.19
2022/9/2 12:40,0.02,0.14,0.17
2022/9/2 12:50,0.03,0.21,0.15
2022/9/2 13:00,0.04,0.51,0.01
2022/9/2 13:10,0.02,0.55,0
2022/9/2 13:20,0.01,0.56,0.01
2022/9/2 13:30,0.09,0.59,0.16
2022/9/2 13:40,0.02,0.51,0.16
2022/9/2 13:50,0.03,0.59,0.15
2022/9/2 14:00,0.01,0.51,0
2022/9/2 14:10,0.04,0.54,0.01
2022/9/2 14:20,0,0.56,0.01
2022/9/2 14:30,0.16,0.54,0
2022/9/2 14:40,0.18,0.56,0.01
2022/9/2 14:50,0.1,0.56,0.01
2022/9/2 15:00,0.18,0.56,0
2022/9/2 15:10,0.24,0.52,0.01
2022/9/2 15:20,0.17,0.59,0
2022/9/2 15:30,0.27,0.58,0.01
2022/9/2 15:40,0.21,0.57,0.11
2022/9/2 15:50,0.16,0.5,0.13
2022/9/2 16:00,0.14,0.39,0.15
2022/9/2 16:10,0.14,0.3,0.13
2022/9/2 16:20,0.14,0.34,0.14
2022/9/2 16:30,0.15,0.22,0.14
2022/9/2 16:40,0.13,0.18,0.13
2022/9/2 16:50,0.13,0.21,0.14
2022/9/2 17:00,0.13,0.39,0.14
2022/9/2 17:10,0.13,0.22,0.13
2022/9/2 17:20,0.12,0.19,0.14
2022/9/2 17:30,0.13,0.17,0.14
2022/9/2 17:40,0.17,0.6,0.11
2022/9/2 17:50,0.19,0.59,0.01
2022/9/2 18:00,0.2,0.57,0
2022/9/2 18:10,0.27,0.6,0.01
2022/9/2 18:20,0.23,0.56,0.01
2022/9/2 18:30,0.15,0.57,0
2022/9/2 18:40,0.15,0.48,0.01
2022/9/2 18:50,0.13,0.45,0.01
2022/9/2 19:00,0.2,0.53,0
2022/9/2 19:10,0.15,0.46,0.01
2022/9/2 19:20,0.13,0.46,0
2022/9/2 19:30,0.12,0.45,0.01
2022/9/2 19:40,0.16,0.4,0.01
2022/9/2 19:50,0.14,0.44,0
2022/9/2 20:00,0.13,0.43,0.01
2022/9/2 20:10,0.07,0.38,0.01
2022/9/2 20:20,0,0.35,0
2022/9/2 20:30,0,0.28,0.01
2022/9/2 20:40,0,0.33,0
2022/9/2 20:50,0,0.27,0.01
2022/9/2 21:00,0,0.28,0.01
2022/9/2 21:10,0.01,0.29,0
2022/9/2 21:20,0,0.28,0.01
2022/9/2 21:30,0.01,0.27,0.01
2022/9/2 21:40,0,0.21,0
2022/9/2 21:50,0.02,0.21,0.01
2022/9/2 22:00,0,0.18,0
2022/9/2 22:10,0,0.18,0.01
2022/9/2 22:20,0,0.19,0.01
2022/9/2 22:30,0,0.15,0
2022/9/2 22:40,0,0.19,0.01
2022/9/2 22:50,0.02,0.07,0.01
2022/9/2 23:00,0,0,0
2022/9/2 23:10,0,0,0.01
2022/9/2 23:20,0,0,0
2022/9/2 23:30,0,0,0.01
2022/9/2 23:40,0,0,0.01
2022/9/2 23:50,0,0,0
2022/9/3 0:00,0,0,0.01
2022/9/3 0:10,0,0,0.01
2022/9/3 0:20,0,0,0
2022/9/3 0:30,0,0,0.01
2022/9/3 0:40,0,0,0
2022/9/3 0:50,0,0,0.01
2022/9/3 1:00,0,0,0.01
2022/9/3 1:10,0,0,0
2022/9/3 1:20,0,0,0.01
2022/9/3 1:30,0,0,0
2022/9/3 1:40,0,0,0.01
2022/9/3 1:50,0,0,0.01
2022/9/3 2:00,0,0,0
2022/9/3 2:10,0,0,0.01
2022/9/3 2:20,0,0,0.01
2022/9/3 2:30,0,0,0
2022/9/3 2:40,0,0,0.01
2022/9/3 2:50,0,0,0
2022/9/3 3:00,0,0,0.01
2022/9/3 3:10,0,0,0.01
2022/9/3 3:20,0,0,0
2022/9/3 3:30,0,0,0.01
2022/9/3 3:40,0,0,0
2022/9/3 3:50,0,0,0.01
2022/9/3 4:00,0,0,0.01
2022/9/3 4:10,0,0,0
2022/9/3 4:20,0,0,0.01
2022/9/3 4:30,0,0,0.01
2022/9/3 4:40,0,0,0
2022/9/3 4:50,0,0,0.01
2022/9/3 5:00,0,0,0
2022/9/3 5:10,0,0,0.01
2022/9/3 5:20,0,0,0.01
2022/9/3 5:30,0,0,0
2022/9/3 5:40,0,0,0.01
2022/9/3 5:50,0,0,0
2022/9/3 6:00,0,0,0.01
2022/9/3 6:10,0,0,0.01
2022/9/3 6:20,0,0,0
2022/9/3 6:30,0,0,0.01
2022/9/3 6:40,0.02,0.15,0.01
2022/9/3 6:50,0.07,0.26,0
2022/9/3 7:00,0.19,0.41,0.01
2022/9/3 7:10,0.01,0.4,0
2022/9/3 7:20,0.05,0.33,0.01
2022/9/3 7:30,0.06,0.3,0.01
2022/9/3 7:40,0.01,0.27,0
2022/9/3 7:50,0,0.34,0.01
2022/9/3 8:00,0.01,0.26,0.01
2022/9/3 8:10,0,0.34,0
2022/9/3 8:20,0,0.34,0.01
2022/9/3 8:30,0.01,0.36,0.01
2022/9/3 8:40,0,0.37,0
2022/9/3 8:50,0.02,0.34,0.01
2022/9/3 9:00,0,0.34,0.01
2022/9/3 9:10,0,0.31,0
2022/9/3 9:20,0,0.33,0.01
2022/9/3 9:30,0.01,0.38,0
2022/9/3 9:40,0.02,0.44,0.01
2022/9/3 9:50,0.01,0.4,0.01
2022/9/3 10:00,0,0.25,0
2022/9/3 10:10,0.01,0.28,0.01
2022/9/3 10:20,0,0.38,0.01
2022/9/3 10:30,0,0.43,0
2022/9/3 10:40,0.02,0.43,0.01
2022/9/3 10:50,0,0.37,0
2022/9/3 11:00,0,0.35,0.01
2022/9/3 11:10,0.01,0.37,0.01
2022/9/3 11:20,0.02,0.38,0
2022/9/3 11:30,0.05,0.39,0.01
2022/9/3 11:40,0,0.31,0
2022/9/3 11:50,0.03,0.38,0.01
2022/9/3 12:00,0.01,0.36,0.01
2022/9/3 12:10,0.01,0.3,0
2022/9/3 12:20,0.01,0.32,0.01
2022/9/3 12:30,0.01,0.33,0.01
2022/9/3 12:40,0,0.36,0
2022/9/3 12:50,0,0.34,0.01
2022/9/3 13:00,0,0.33,0
2022/9/3 13:10,0.02,0.4,0.01
2022/9/3 13:20,0.07,0.41,0.01
2022/9/3 13:30,0.02,0.41,0
2022/9/3 13:40,0.02,0.33,0.01
2022/9/3 13:50,0.04,0.34,0.01
2022/9/3 14:00,0,0.38,0
2022/9/3 14:10,0,0.32,0.01
2022/9/3 14:20,0.02,0.35,0
2022/9/3 14:30,0,0.3,0.01
2022/9/3 14:40,0,0.27,0.01
2022/9/3 14:50,0.01,0.27,0
2022/9/3 15:00,0.01,0.34,0.01
2022/9/3 15:10,0.06,0.28,0
2022/9/3 15:20,0,0.32,0.01
2022/9/3 15:30,0,0.3,0.01
2022/9/3 15:40,0,0.28,0
2022/9/3 15:50,0,0.3,0.01
2022/9/3 16:00,0.02,0.3,0.01
2022/9/3 16:10,0.01,0.26,0
2022/9/3 16:20,0,0.22,0.01
2022/9/3 16:30,0,0.22,0
2022/9/3 16:40,0,0.24,0.01
2022/9/3 16:50,0.01,0.24,0.01
2022/9/3 17:00,0.09,0.23,0
2022/9/3 17:10,0.02,0.23,0.01
2022/9/3 17:20,0.05,0.26,0
2022/9/3 17:30,0.09,0.25,0.01
2022/9/3 17:40,0.05,0.26,0.01
2022/9/3 17:50,0.05,0.26,0
2022/9/3 18:00,0.05,0.29,0.01
2022/9/3 18:10,0.03,0.3,0.01
2022/9/3 18:20,0.04,0.27,0
2022/9/3 18:30,0.06,0.2,0.01
2022/9/3 18:40,0.09,0.24,0
2022/9/3 18:50,0.05,0.23,0.01
2022/9/3 19:00,0,0.16,0.01
2022/9/3 19:10,0.01,0.02,0
2022/9/3 19:20,0,0,0.01
2022/9/3 19:30,0,0,0.01
2022/9/3 19:40,0,0,0
2022/9/3 19:50,0,0,0.01
2022/9/3 20:00,0,0,0
2022/9/3 20:10,0,0,0.01
2022/9/3 20:20,0,0,0.01
2022/9/3 20:30,0,0,0
2022/9/3 20:40,0,0,0.01
2022/9/3 20:50,0,0,0.01
2022/9/3 21:00,0,0,0
2022/9/3 21:10,0,0,0.01
2022/9/3 21:20,0,0,0
2022/9/3 21:30,0,0,0.01
2022/9/3 21:40,0,0,0.01
2022/9/3 21:50,0,0,0
2022/9/3 22:00,0,0,0.01
2022/9/3 22:10,0,0,0.01
2022/9/3 22:20,0,0,0
2022/9/3 22:30,0,0,0.01
2022/9/3 22:40,0,0,0
2022/9/3 22:50,0,0,0.01
2022/9/3 23:00,0,0,0.01
2022/9/3 23:10,0,0,0
2022/9/3 23:20,0,0,0.01
2022/9/3 23:30,0,0,0.01
2022/9/3 23:40,0,0,0
2022/9/3 23:50,0,0,0.01
2022/9/4 0:00,0,0,0
2022/9/4 0:10,0,0,0.01
2022/9/4 0:20,0,0,0.01
2022/9/4 0:30,0,0,0
2022/9/4 0:40,0,0,0.01
2022/9/4 0:50,0,0,0
2022/9/4 1:00,0,0,0.01
2022/9/4 1:10,0,0,0.01
2022/9/4 1:20,0,0,0
2022/9/4 1:30,0,0,0.01
2022/9/4 1:40,0,0,0.01
2022/9/4 1:50,0,0,0
2022/9/4 2:00,0,0,0.01
2022/9/4 2:10,0,0,0
2022/9/4 2:20,0,0,0.01
2022/9/4 2:30,0,0,0.01
2022/9/4 2:40,0,0,0
2022/9/4 2:50,0,0,0.01
2022/9/4 3:00,0,0,0.01
2022/9/4 3:10,0,0,0
2022/9/4 3:20,0,0,0.01
2022/9/4 3:30,0,0,0
2022/9/4 3:40,0,0,0.01
2022/9/4 3:50,0,0,0.01
2022/9/4 4:00,0,0,0
2022/9/4 4:10,0,0,0.01
2022/9/4 4:20,0,0,0
2022/9/4 4:30,0,0,0.01
2022/9/4 4:40,0,0,0.01
2022/9/4 4:50,0,0,0
2022/9/4 5:00,0,0,0.01
2022/9/4 5:10,0,0,0.01
2022/9/4 5:20,0,0,0
2022/9/4 5:30,0,0,0.01
2022/9/4 5:40,0,0,0
2022/9/4 5:50,0,0,0.01
2022/9/4 6:00,0,0,0.01
2022/9/4 6:10,0,0,0
2022/9/4 6:20,0,0,0.01
2022/9/4 6:30,0.01,0.06,0.01
2022/9/4 6:40,0,0.08,0
2022/9/4 6:50,0,0.07,0.01
2022/9/4 7:00,0,0.06,0
2022/9/4 7:10,0.01,0.06,0.01
2022/9/4 7:20,0.05,0.06,0.01
2022/9/4 7:30,0.08,0.06,0
2022/9/4 7:40,0.01,0.06,0.01
2022/9/4 7:50,0,0.06,0
2022/9/4 8:00,0,0.08,0.01
2022/9/4 8:10,0,0.07,0.01
2022/9/4 8:20,0,0.07,0
2022/9/4 8:30,0,0.06,0.01
2022/9/4 8:40,0.01,0.07,0.01
2022/9/4 8:50,0.07,0.05,0
2022/9/4 9:00,0,0.04,0.01
2022/9/4 9:10,0.02,0.08,0
2022/9/4 9:20,0,0.09,0.01
2022/9/4 9:30,0,0.08,0.01
2022/9/4 9:40,0,0.08,0
2022/9/4 9:50,0,0.07,0.01
2022/9/4 10:00,0,0.09,0.01
2022/9/4 10:10,0.02,0.09,0
2022/9/4 10:20,0.01,0.09,0.01
2022/9/4 10:30,0,0.09,0
2022/9/4 10:40,0,0.09,0.01
2022/9/4 10:50,0,0.09,0.01
2022/9/4 11:00,0,0.08,0
2022/9/4 11:10,0,0.07,0.01
2022/9/4 11:20,0.03,0.12,0
2022/9/4 11:30,0,0.17,0.01
2022/9/4 11:40,0,0.11,0.01
2022/9/4 11:50,0,0.12,0
2022/9/4 12:00,0,0.12,0.01
2022/9/4 12:10,0,0.12,0.01
2022/9/4 12:20,0.01,0.12,0
2022/9/4 12:30,0.11,0.08,0.01
2022/9/4 12:40,0,0.11,0
2022/9/4 12:50,0.02,0.08,0.01
2022/9/4 13:00,0.08,0.07,0.01
2022/9/4 13:10,0.04,0.09,0
2022/9/4 13:20,0,0.08,0.01
2022/9/4 13:30,0,0.1,0.01
2022/9/4 13:40,0,0.07,0
2022/9/4 13:50,0,0.08,0.01
2022/9/4 14:00,0,0.09,0
2022/9/4 14:10,0.05,0.08,0.01
2022/9/4 14:20,0.04,0.08,0.01
2022/9/4 14:30,0,0.1,0
2022/9/4 14:40,0,0.11,0.01
2022/9/4 14:50,0.01,0.05,0
2022/9/4 15:00,0,0.04,0.01
2022/9/4 15:10,0,0.06,0.01
2022/9/4 15:20,0.04,0.06,0
2022/9/4 15:30,0,0.06,0.01
2022/9/4 15:40,0.07,0.07,0.01
2022/9/4 15:50,0,0.07,0
2022/9/4 16:00,0,0.05,0.01
2022/9/4 16:10,0,0.06,0
2022/9/4 16:20,0.05,0.06,0.01
2022/9/4 16:30,0,0.07,0.01
2022/9/4 16:40,0.03,0.09,0
2022/9/4 16:50,0,0.06,0.01
2022/9/4 17:00,0,0.07,0
2022/9/4 17:10,0,0.04,0.01
2022/9/4 17:20,0.01,0.04,0.01
2022/9/4 17:30,0,0.04,0
2022/9/4 17:40,0,0.04,0.01
2022/9/4 17:50,0,0.04,0.01
2022/9/4 18:00,0,0.06,0
2022/9/4 18:10,0,0.04,0.01
2022/9/4 18:20,0,0.05,0
2022/9/4 18:30,0.01,0.06,0.01
2022/9/4 18:40,0,0,0.01
2022/9/4 18:50,0,0,0
2022/9/4 19:00,0,0,0.01
2022/9/4 19:10,0,0,0
2022/9/4 19:20,0,0,0.01
2022/9/4 19:30,0,0,0.01
2022/9/4 19:40,0,0,0
2022/9/4 19:50,0,0,0.01
2022/9/4 20:00,0,0,0.01
2022/9/4 20:10,0,0,0
2022/9/4 20:20,0,0,0.01
2022/9/4 20:30,0,0,0
2022/9/4 20:40,0,0,0.01
2022/9/4 20:50,0,0,0.01
2022/9/4 21:00,0,0,0
2022/9/4 21:10,0,0,0.01
2022/9/4 21:20,0,0,0.01
2022/9/4 21:30,0,0,0
2022/9/4 21:40,0,0,0.01
2022/9/4 21:50,0,0,0
2022/9/4 22:00,0,0,0.01
2022/9/4 22:10,0,0,0.01
2022/9/4 22:20,0,0,0
2022/9/4 22:30,0,0,0.01
2022/9/4 22:40,0,0,0.01
2022/9/4 22:50,0,0,0
2022/9/4 23:00,0,0,0.01
2022/9/4 23:10,0,0,0
2022/9/4 23:20,0,0,0.01
2022/9/4 23:30,0,0,0.01
2022/9/4 23:40,0,0,0
2022/9/4 23:50,0,0,0.01
2022/9/5 0:00,0,0,0
2022/9/5 0:10,0,0,0.01
2022/9/5 0:20,0,0,0.01
2022/9/5 0:30,0,0,0
2022/9/5 0:40,0,0,0.01
2022/9/5 0:50,0,0,0.01
2022/9/5 1:00,0,0,0
2022/9/5 1:10,0,0,0.01
2022/9/5 1:20,0,0,0
2022/9/5 1:30,0,0,0.01
2022/9/5 1:40,0,0,0.01
2022/9/5 1:50,0,0,0
2022/9/5 2:00,0,0,0.01
2022/9/5 2:10,0,0,0
2022/9/5 2:20,0,0,0.01
2022/9/5 2:30,0,0,0.01
2022/9/5 2:40,0,0,0
2022/9/5 2:50,0,0,0.01
2022/9/5 3:00,0,0,0.01
2022/9/5 3:10,0,0,0
2022/9/5 3:20,0,0,0.01
2022/9/5 3:30,0,0,0
2022/9/5 3:40,0,0,0.01
2022/9/5 3:50,0,0,0.01
2022/9/5 4:00,0,0,0
2022/9/5 4:10,0,0,0.01
2022/9/5 4:20,0,0,0
2022/9/5 4:30,0,0,0.01
2022/9/5 4:40,0,0,0.01
2022/9/5 4:50,0,0,0
2022/9/5 5:00,0,0,0.01
2022/9/5 5:10,0,0,0.01
2022/9/5 5:20,0,0,0
2022/9/5 5:30,0,0,0.01
2022/9/5 5:40,0,0,0
2022/9/5 5:50,0,0,0.01
2022/9/5 6:00,0,0,0.01
2022/9/5 6:10,0,0,0
2022/9/5 6:20,0.01,0.06,0.01
2022/9/5 6:30,0,0.11,0
2022/9/5 6:40,0.03,0.36,0.01
2022/9/5 6:50,0.18,0.42,0.01
2022/9/5 7:00,0.23,0.37,0
2022/9/5 7:10,0.19,0.48,0.01
2022/9/5 7:20,0.2,0.49,0.01
2022/9/5 7:30,0.17,0.54,0
2022/9/5 7:40,0.09,0.56,0.13
2022/9/5 7:50,0.06,0.45,0.16
2022/9/5 8:00,0.19,0.55,0.17
2022/9/5 8:10,0.05,0.55,0.17
2022/9/5 8:20,0.2,0.55,0.15
2022/9/5 8:30,0.15,0.57,0.18
2022/9/5 8:40,0.07,0.51,0.15
2022/9/5 8:50,0.09,0.54,0.17
2022/9/5 9:00,0.03,0.55,0.17
2022/9/5 9:10,0.14,0.57,0.15
2022/9/5 9:20,0.04,0.57,0.03
2022/9/5 9:30,0.03,0.55,0
2022/9/5 9:40,0.11,0.55,0.01
2022/9/5 9:50,0.16,0.54,0.01
2022/9/5 10:00,0.19,0.57,0
2022/9/5 10:10,0.12,0.53,0.01
2022/9/5 10:20,0.13,0.5,0.01
2022/9/5 10:30,0.13,0.52,0
2022/9/5 10:40,0.04,0.56,0.01
2022/9/5 10:50,0.02,0.53,0
2022/9/5 11:00,0.05,0.49,0.01
2022/9/5 11:10,0.1,0.53,0.01
2022/9/5 11:20,0.1,0.54,0
2022/9/5 11:30,0.11,0.53,0.03
2022/9/5 11:40,0.1,0.5,0.05
2022/9/5 11:50,0.17,0.49,0.04
2022/9/5 12:00,0.12,0.24,0.17
2022/9/5 12:10,0.15,0.1,0.17
2022/9/5 12:20,0.07,0.14,0.19
2022/9/5 12:30,0.09,0.16,0.18
2022/9/5 12:40,0.04,0.12,0.17
2022/9/5 12:50,0.08,0.29,0.14
2022/9/5 13:00,0.04,0.56,0.02
2022/9/5 13:10,0.17,0.51,0.02
2022/9/5 13:20,0.09,0.51,0.03
2022/9/5 13:30,0.16,0.57,0.03
2022/9/5 13:40,0.08,0.59,0.02
2022/9/5 13:50,0.1,0.6,0.05
2022/9/5 14:00,0.07,0.56,0.17
2022/9/5 14:10,0.11,0.55,0.19
2022/9/5 14:20,0.04,0.56,0.2
2022/9/5 14:30,0.06,0.54,0.18
2022/9/5 14:40,0.05,0.57,0.17
2022/9/5 14:50,0.07,0.58,0.17
2022/9/5 15:00,0.15,0.54,0.03
2022/9/5 15:10,0.15,0.58,0.03
2022/9/5 15:20,0.18,0.57,0.02
2022/9/5 15:30,0.17,0.58,0.03
2022/9/5 15:40,0.05,0.56,0.03
2022/9/5 15:50,0.04,0.57,0.03
2022/9/5 16:00,0.01,0.52,0.01
2022/9/5 16:10,0.12,0.55,0.01
2022/9/5 16:20,0.14,0.5,0.01
2022/9/5 16:30,0.16,0.52,0
2022/9/5 16:40,0.2,0.52,0.01
2022/9/5 16:50,0.12,0.55,0
2022/9/5 17:00,0.19,0.53,0.01
2022/9/5 17:10,0.16,0.52,0.01
2022/9/5 17:20,0.16,0.47,0
2022/9/5 17:30,0.15,0.52,0.01
2022/9/5 17:40,0.12,0.54,0
2022/9/5 17:50,0.14,0.54,0.01
2022/9/5 18:00,0.14,0.5,0.03
2022/9/5 18:10,0.15,0.57,0.04
2022/9/5 18:20,0.1,0.44,0.05
2022/9/5 18:30,0.13,0.48,0.03
2022/9/5 18:40,0.03,0.45,0.02
2022/9/5 18:50,0.13,0.49,0.01
2022/9/5 19:00,0.03,0.42,0
2022/9/5 19:10,0.05,0.37,0.01
2022/9/5 19:20,0.07,0.36,0.01
2022/9/5 19:30,0.14,0.35,0
2022/9/5 19:40,0.03,0.36,0.01
2022/9/5 19:50,0.05,0.35,0
2022/9/5 20:00,0.08,0.35,0.01
2022/9/5 20:10,0.01,0.35,0.01
2022/9/5 20:20,0.01,0.35,0
2022/9/5 20:30,0,0.27,0.01
2022/9/5 20:40,0,0.29,0
2022/9/5 20:50,0,0.27,0.01
2022/9/5 21:00,0.01,0.25,0.01
2022/9/5 21:10,0,0.21,0
2022/9/5 21:20,0,0.2,0.01
2022/9/5 21:30,0,0.2,0
2022/9/5 21:40,0,0.22,0.01
2022/9/5 21:50,0,0.16,0.01
2022/9/5 22:00,0.01,0.1,0
2022/9/5 22:10,0,0,0.01
2022/9/5 22:20,0,0,0.01
2022/9/5 22:30,0,0,0
2022/9/5 22:40,0,0,0.01
2022/9/5 22:50,0,0,0
2022/9/5 23:00,0,0,0.01
2022/9/5 23:10,0,0,0.01
2022/9/5 23:20,0,0,0
2022/9/5 23:30,0,0,0.01
2022/9/5 23:40,0,0,0
2022/9/5 23:50,0,0,0.01
2022/9/6 0:00,0,0,0.01
2022/9/6 0:10,0,0,0
2022/9/6 0:20,0,0,0.01
2022/9/6 0:30,0,0,0
2022/9/6 0:40,0,0,0.01
2022/9/6 0:50,0,0,0.01
2022/9/6 1:00,0,0,0
2022/9/6 1:10,0,0,0.01
2022/9/6 1:20,0,0,0
2022/9/6 1:30,0,0,0.01
2022/9/6 1:40,0,0,0.01
2022/9/6 1:50,0,0,0
2022/9/6 2:00,0,0,0.01
2022/9/6 2:10,0,0,0
2022/9/6 2:20,0,0,0.01
2022/9/6 2:30,0,0,0.01
2022/9/6 2:40,0,0,0
2022/9/6 2:50,0,0,0.01
2022/9/6 3:00,0,0,0.01
2022/9/6 3:10,0,0,0
2022/9/6 3:20,0,0,0.01
2022/9/6 3:30,0,0,0
2022/9/6 3:40,0,0,0.01
2022/9/6 3:50,0,0,0.01
2022/9/6 4:00,0,0,0
2022/9/6 4:10,0,0,0.01
2022/9/6 4:20,0,0,0
2022/9/6 4:30,0,0,0.01
2022/9/6 4:40,0,0,0.01
2022/9/6 4:50,0,0,0
2022/9/6 5:00,0,0,0.01
2022/9/6 5:10,0,0,0
2022/9/6 5:20,0,0,0.01
2022/9/6 5:30,0,0,0.01
2022/9/6 5:40,0,0,0
2022/9/6 5:50,0,0,0.01
2022/9/6 6:00,0,0,0
2022/9/6 6:10,0.02,0.04,0.01
2022/9/6 6:20,0,0.07,0.01
2022/9/6 6:30,0.02,0.27,0
2022/9/6 6:40,0.05,0.37,0.01
2022/9/6 6:50,0.13,0.45,0
2022/9/6 7:00,0.12,0.46,0.01
2022/9/6 7:10,0.13,0.47,0.01
2022/9/6 7:20,0.21,0.49,0
2022/9/6 7:30,0.19,0.59,0.01
2022/9/6 7:40,0.15,0.61,0.13
2022/9/6 7:50,0.09,0.44,0.09
2022/9/6 8:00,0.3,0.56,0.01
2022/9/6 8:10,0.26,0.57,0
2022/9/6 8:20,0.23,0.57,0.01
2022/9/6 8:30,0.25,0.5,0.01
2022/9/6 8:40,0.23,0.51,0
2022/9/6 8:50,0.24,0.54,0.01
2022/9/6 9:00,0.23,0.52,0
2022/9/6 9:10,0.2,0.53,0.01
2022/9/6 9:20,0.18,0.5,0.01
2022/9/6 9:30,0.13,0.52,0
2022/9/6 9:40,0.17,0.48,0.01
2022/9/6 9:50,0.16,0.51,0
2022/9/6 10:00,0.07,0.49,0.01
2022/9/6 10:10,0.07,0.52,0.01
2022/9/6 10:20,0.08,0.53,0
2022/9/6 10:30,0.08,0.49,0.01
2022/9/6 10:40,0.15,0.46,0
2022/9/6 10:50,0.15,0.53,0.01
2022/9/6 11:00,0.09,0.53,0.01
2022/9/6 11:10,0.1,0.51,0
2022/9/6 11:20,0.16,0.48,0.01
2022/9/6 11:30,0.22,0.49,0.19
2022/9/6 11:40,0.12,0.51,0.18
2022/9/6 11:50,0.12,0.5,0.02
2022/9/6 12:00,0.13,0.17,0.15
2022/9/6 12:10,0.13,0.14,0.19
2022/9/6 12:20,0.16,0.14,0.19
2022/9/6 12:30,0.1,0.15,0.17
2022/9/6 12:40,0.11,0.16,0.18
2022/9/6 12:50,0.08,0.17,0.17
2022/9/6 13:00,0.09,0.58,0.01
2022/9/6 13:10,0.09,0.49,0.01
2022/9/6 13:20,0.09,0.48,0
2022/9/6 13:30,0.17,0.44,0.01
2022/9/6 13:40,0.21,0.53,0.01
2022/9/6 13:50,0.11,0.51,0
2022/9/6 14:00,0.06,0.51,0.01
2022/9/6 14:10,0.08,0.46,0
2022/9/6 14:20,0.08,0.54,0.01
2022/9/6 14:30,0.11,0.47,0.01
2022/9/6 14:40,0.08,0.53,0.01
2022/9/6 14:50,0.15,0.53,0.03
2022/9/6 15:00,0.1,0.56,0.02
2022/9/6 15:10,0.2,0.48,0.03
2022/9/6 15:20,0.13,0.54,0.03
2022/9/6 15:30,0.09,0.54,0
2022/9/6 15:40,0.1,0.55,0.01
2022/9/6 15:50,0.09,0.57,0.01
2022/9/6 16:00,0.16,0.57,0
2022/9/6 16:10,0.16,0.56,0.01
2022/9/6 16:20,0.13,0.58,0
2022/9/6 16:30,0.1,0.58,0.01
2022/9/6 16:40,0.17,0.56,0.01
2022/9/6 16:50,0.18,0.54,0
2022/9/6 17:00,0.13,0.52,0.01
2022/9/6 17:10,0.16,0.49,0.01
2022/9/6 17:20,0.14,0.56,0
2022/9/6 17:30,0.18,0.53,0.02
2022/9/6 17:40,0.17,0.5,0.07
2022/9/6 17:50,0.21,0.47,0.08
2022/9/6 18:00,0.12,0.54,0.08
2022/9/6 18:10,0.18,0.52,0.08
2022/9/6 18:20,0.14,0.46,0.08
2022/9/6 18:30,0.04,0.43,0.08
2022/9/6 18:40,0.12,0.5,0.07
2022/9/6 18:50,0.06,0.52,0.08
2022/9/6 19:00,0.05,0.46,0.08
2022/9/6 19:10,0.1,0.49,0.08
2022/9/6 19:20,0.15,0.39,0.07
2022/9/6 19:30,0.04,0.45,0
2022/9/6 19:40,0.01,0.38,0.01
2022/9/6 19:50,0.02,0.36,0.01
2022/9/6 20:00,0.01,0.33,0
2022/9/6 20:10,0.03,0.35,0.01
2022/9/6 20:20,0,0.38,0
2022/9/6 20:30,0,0.36,0.01
2022/9/6 20:40,0.01,0.34,0.01
2022/9/6 20:50,0.01,0.32,0
2022/9/6 21:00,0.01,0.35,0.01
2022/9/6 21:10,0.05,0.24,0.01
2022/9/6 21:20,0,0.24,0
2022/9/6 21:30,0,0.23,0.01
2022/9/6 21:40,0,0.21,0
2022/9/6 21:50,0,0.22,0.01
2022/9/6 22:00,0,0.22,0.01
2022/9/6 22:10,0,0.21,0
2022/9/6 22:20,0,0.19,0.01
2022/9/6 22:30,0,0.17,0.01
2022/9/6 22:40,0,0.13,0
2022/9/6 22:50,0,0.14,0.01
2022/9/6 23:00,0.01,0.12,0
2022/9/6 23:10,0,0,0.01
2022/9/6 23:20,0,0,0.01
2022/9/6 23:30,0,0,0
2022/9/6 23:40,0,0,0.01
2022/9/6 23:50,0,0,0
2022/9/7 0:00,0,0,0.01
2022/9/7 0:10,0,0,0.01
2022/9/7 0:20,0,0,0
2022/9/7 0:30,0,0,0.01
2022/9/7 0:40,0,0,0.01
2022/9/7 0:50,0,0,0
2022/9/7 1:00,0,0,0.01
2022/9/7 1:10,0,0,0
2022/9/7 1:20,0,0,0.01
2022/9/7 1:30,0,0,0.01
2022/9/7 1:40,0,0,0
2022/9/7 1:50,0,0,0.01
2022/9/7 2:00,0,0,0.01
2022/9/7 2:10,0,0,0
2022/9/7 2:20,0,0,0.01
2022/9/7 2:30,0,0,0
2022/9/7 2:40,0,0,0.01
2022/9/7 2:50,0,0,0.01
2022/9/7 3:00,0,0,0
2022/9/7 3:10,0,0,0.01
2022/9/7 3:20,0,0,0
2022/9/7 3:30,0,0,0.01
2022/9/7 3:40,0,0,0.01
2022/9/7 3:50,0,0,0
2022/9/7 4:00,0,0,0.01
2022/9/7 4:10,0,0,0
2022/9/7 4:20,0,0,0.01
2022/9/7 4:30,0,0,0.01
2022/9/7 4:40,0,0,0
2022/9/7 4:50,0,0,0.01
2022/9/7 5:00,0,0,0.01
2022/9/7 5:10,0,0,0